Flag for Germany Weather past 2 weeks in Falkensee, Brandenburg, Germany

39 °F


Feels Like: 34 °F
Forecast: 42 / 48 °F
Wind: 8 mph from East

Location: Berlin-Tegel

Current Time: Oct 14, 2015 at 5:31:49 AM

Latest Report: Oct 14, 2015 at 4:50 AM

Visibility: N/A

Pressure: 30.09 "Hg

Humidity: 81%

Dew point: 34 °F

Location of FalkenseeLocation

Historic Weather in Falkensee — Graph


Falkensee temperature yesterday

Maximum temperature yesterday: 41 °F (at 12:20 AM)
Minimum temperature yesterday: 39 °F (at 2:20 AM)
Average temperature yesterday: 40 °F

Past Weeks' High & Low Weather Summary

High68 °F (Oct 3, 2:20 PM)100% (Sep 29, 7:20 AM)30.69 "Hg (Sep 29, 7:20 AM)
Low32 °F (Oct 12, 5:20 AM)28% (Oct 2, 4:50 PM)29.80 "Hg (Oct 6, 1:50 PM)
Average50 °F70%30.19 "Hg
* Reported Sep 29 4:20 AM — Oct 14 4:20 AM, Falkensee, Weather by CustomWeather, © 2015

Note: Actual official high and low records may vary slightly from our data, if they occured in-between our weather recording intervals... More about our weather records


Falkensee weather history for previous 24 hours

Time TempWeatherWind HumidityBarometerVisibility
4:20 AM
Wed, Oct 14
39 °FPassing clouds.9 mph81%30.12 "HgN/A
3:50 AM39 °FOvercast.8 mph81%30.12 "Hg6 mi
3:20 AM39 °FPassing clouds.7 mph87%30.12 "Hg5 mi
2:50 AM39 °FPassing clouds.6 mph87%30.15 "Hg5 mi
2:20 AM39 °FPartly cloudy.7 mph87%30.12 "Hg5 mi
1:50 AM39 °FPartly cloudy.6 mph87%30.12 "Hg5 mi
1:20 AM39 °FDrizzle. Mostly cloudy.5 mph87%30.12 "Hg5 mi
12:50 AM39 °FDrizzle. Mostly cloudy.3 mph93%30.12 "Hg5 mi
11:20 PM
Tue, Oct 13
39 °FOvercast.6 mph93%30.12 "Hg5 mi
10:50 PM39 °FPartly cloudy.5 mph93%30.12 "Hg5 mi
10:20 PM39 °FPassing clouds.5 mph93%30.12 "Hg4 mi
9:50 PM39 °FPartly cloudy.5 mph93%30.12 "Hg5 mi
9:20 PM39 °FDrizzle. Mostly cloudy.6 mph93%30.12 "Hg5 mi
8:50 PM39 °FPassing clouds.5 mph93%30.12 "Hg6 mi
8:20 PM39 °FPassing clouds.5 mph93%30.12 "Hg6 mi
7:50 PM39 °FLight rain. Passing clouds.5 mph93%30.12 "Hg6 mi
7:20 PM41 °FPassing clouds.6 mph81%30.12 "Hg6 mi
6:50 PM41 °FLight rain. Broken clouds.5 mph81%30.12 "HgN/A
6:20 PM41 °FLight rain. Partly sunny.6 mph81%30.12 "HgN/A
5:50 PM41 °FPartly sunny.6 mph81%30.12 "HgN/A
5:20 PM41 °FPartly sunny.6 mph81%30.12 "HgN/A
4:50 PM41 °FPartly sunny.6 mph81%30.12 "HgN/A
4:20 PM41 °FPartly sunny.6 mph81%30.12 "HgN/A
3:50 PM41 °FPartly sunny.6 mph81%30.12 "HgN/A
3:20 PM41 °FPartly sunny.5 mph81%30.12 "HgN/A
2:50 PM41 °FPartly sunny.5 mph81%30.12 "HgN/A
2:20 PM41 °FPartly sunny.5 mph81%30.12 "HgN/A
1:50 PM39 °FLight rain. Partly sunny.6 mph87%30.12 "HgN/A
1:20 PM39 °FLight rain. Broken clouds.3 mph87%30.12 "Hg6 mi
12:50 PM39 °FDrizzle. Partly sunny.5 mph87%30.15 "Hg5 mi
12:20 PM39 °FLight rain. Broken clouds.6 mph87%30.15 "HgN/A
11:50 AM39 °FPartly sunny.5 mph81%30.15 "HgN/A
11:20 AM39 °FPartly sunny.5 mph81%30.15 "HgN/A
10:50 AM39 °FPartly sunny.6 mph81%30.12 "HgN/A
10:20 AM39 °FPartly sunny.6 mph81%30.15 "HgN/A
9:50 AM39 °FPartly sunny.6 mph81%30.15 "HgN/A
9:20 AM39 °FPartly sunny.7 mph81%30.15 "HgN/A
8:50 AM39 °FPartly sunny.6 mph75%30.15 "HgN/A
8:20 AM39 °FPassing clouds.7 mph75%30.12 "HgN/A
7:50 AM39 °FPartly cloudy.8 mph75%30.15 "HgN/A
7:20 AM39 °FPassing clouds.6 mph75%30.15 "HgN/A
6:50 AM39 °FPassing clouds.5 mph75%30.15 "HgN/A
6:20 AM39 °FPassing clouds.8 mph75%30.15 "HgN/A
5:20 AM39 °FPassing clouds.7 mph75%30.15 "HgN/A
Weather by CustomWeather, © 2015

See weather overviewHow to use our weather pages